Time,TemperatureF,DewpointF,PressureIn,WindDirection,WindDirectionDegrees,WindSpeedMPH,WindSpeedGustMPH,Humidity,HourlyPrecipIn,Conditions,Clouds,dailyrainin,SoftwareType,DateUTC
2013-02-04 00:00:00,26.2,18.8,29.77,NNW,339,0.0,0.0,73,0.00,,,0.00,VWS V13.01,2013-02-04 05:00:00,
2013-02-04 00:02:00,26.2,18.5,29.77,NNW,339,0.0,0.0,72,0.00,,,0.00,VWS V13.01,2013-02-04 05:02:00,
2013-02-04 00:03:00,26.2,18.8,29.77,NNW,339,0.0,0.0,73,0.00,,,0.00,VWS V13.01,2013-02-04 05:03:00,
2013-02-04 00:08:00,26.2,19.1,29.77,WSW,258,0.0,0.0,74,0.00,,,0.00,VWS V13.01,2013-02-04 05:08:00,
2013-02-04 00:13:00,26.2,19.1,29.77,WSW,255,0.0,2.7,74,0.00,,,0.00,VWS V13.01,2013-02-04 05:13:00,
2013-02-04 00:18:00,26.2,19.1,29.77,SW,219,2.7,3.6,74,0.00,,,0.00,VWS V13.01,2013-02-04 05:18:00,
2013-02-04 00:23:00,26.2,19.1,29.77,SW,219,0.0,0.0,74,0.00,,,0.00,VWS V13.01,2013-02-04 05:23:00,
2013-02-04 00:28:00,26.2,19.1,29.77,SW,218,0.0,3.1,74,0.00,,,0.00,VWS V13.01,2013-02-04 05:28:00,
2013-02-04 00:33:00,26.1,19.2,29.77,SSW,204,2.2,3.1,75,0.00,,,0.00,VWS V13.01,2013-02-04 05:33:00,
2013-02-04 00:38:00,26.2,18.8,29.77,SSE,160,0.0,2.7,73,0.00,,,0.00,VWS V13.01,2013-02-04 05:38:00,
2013-02-04 00:43:00,26.1,18.6,29.77,South,169,0.0,0.0,73,0.00,,,0.00,VWS V13.01,2013-02-04 05:43:00,
2013-02-04 00:48:00,26.2,18.8,29.77,SE,135,0.0,3.1,73,0.00,,,0.00,VWS V13.01,2013-02-04 05:48:00,
2013-02-04 00:53:00,26.2,18.5,29.77,South,174,2.7,2.7,72,0.00,,,0.00,VWS V13.01,2013-02-04 05:53:00,
2013-02-04 00:58:00,26.2,18.5,29.77,South,173,0.0,0.0,72,0.00,,,0.00,VWS V13.01,2013-02-04 05:58:00,
2013-02-04 01:03:00,26.2,18.1,29.77,SE,146,0.0,2.2,71,0.00,,,0.00,VWS V13.01,2013-02-04 06:03:00,
2013-02-04 01:08:00,26.1,17.6,29.77,SE,145,2.2,2.7,70,0.00,,,0.00,VWS V13.01,2013-02-04 06:08:00,
2013-02-04 01:13:00,26.1,17.3,29.77,West,273,0.0,4.0,69,0.00,,,0.00,VWS V13.01,2013-02-04 06:13:00,
2013-02-04 01:18:00,26.1,16.6,29.80,WSW,242,3.1,3.6,67,0.00,,,0.00,VWS V13.01,2013-02-04 06:18:00,
2013-02-04 01:23:00,26.2,16.8,29.80,SE,142,0.0,3.1,67,0.00,,,0.00,VWS V13.01,2013-02-04 06:23:00,
2013-02-04 01:28:00,26.2,16.1,29.80,SSE,154,0.0,4.0,65,0.00,,,0.00,VWS V13.01,2013-02-04 06:28:00,
2013-02-04 01:33:00,26.2,16.1,29.80,SW,216,2.7,3.1,65,0.00,,,0.00,VWS V13.01,2013-02-04 06:33:00,
2013-02-04 01:38:00,26.2,15.4,29.80,WNW,293,2.7,4.9,63,0.00,,,0.00,VWS V13.01,2013-02-04 06:38:00,
2013-02-04 01:43:00,26.2,15.0,29.80,SW,226,3.1,4.9,62,0.00,,,0.00,VWS V13.01,2013-02-04 06:43:00,
2013-02-04 01:47:00,26.2,15.0,29.80,South,180,0.0,2.2,62,0.00,,,0.00,VWS V13.01,2013-02-04 06:47:00,
2013-02-04 01:52:00,26.2,15.0,29.80,SSW,209,2.2,3.1,62,0.00,,,0.00,VWS V13.01,2013-02-04 06:52:00,
2013-02-04 01:57:00,26.1,14.8,29.80,South,187,2.7,2.7,62,0.00,,,0.00,VWS V13.01,2013-02-04 06:57:00,
2013-02-04 02:02:00,26.1,14.5,29.80,SW,215,2.7,2.7,61,0.00,,,0.00,VWS V13.01,2013-02-04 07:02:00,
2013-02-04 02:07:00,25.9,14.3,29.80,SW,225,0.0,2.2,61,0.00,,,0.00,VWS V13.01,2013-02-04 07:07:00,
2013-02-04 02:12:00,25.9,13.9,29.80,WSW,252,0.0,0.0,60,0.00,,,0.00,VWS V13.01,2013-02-04 07:12:00,
2013-02-04 02:17:00,25.9,13.5,29.80,SW,220,0.0,3.6,59,0.00,,,0.00,VWS V13.01,2013-02-04 07:17:00,
2013-02-04 02:22:00,25.9,13.5,29.80,ESE,108,0.0,3.1,59,0.00,,,0.00,VWS V13.01,2013-02-04 07:22:00,
2013-02-04 02:27:00,25.7,13.4,29.80,SSE,149,5.8,6.3,59,0.00,,,0.00,VWS V13.01,2013-02-04 07:27:00,
2013-02-04 02:32:00,25.5,13.2,29.80,West,267,0.0,3.6,59,0.00,,,0.00,VWS V13.01,2013-02-04 07:32:00,
2013-02-04 02:37:00,25.3,13.0,29.80,SSW,202,2.2,4.0,59,0.00,,,0.00,VWS V13.01,2013-02-04 07:37:00,
2013-02-04 02:42:00,25.3,13.0,29.80,SW,214,2.7,5.4,59,0.00,,,0.00,VWS V13.01,2013-02-04 07:42:00,
2013-02-04 02:47:00,25.3,13.0,29.83,SW,225,0.0,3.6,59,0.00,,,0.00,VWS V13.01,2013-02-04 07:47:00,
2013-02-04 02:52:00,25.3,13.0,29.83,SW,226,0.0,0.0,59,0.00,,,0.00,VWS V13.01,2013-02-04 07:52:00,
2013-02-04 02:57:00,25.3,13.0,29.83,SW,215,0.0,2.2,59,0.00,,,0.00,VWS V13.01,2013-02-04 07:57:00,
2013-02-04 03:02:00,25.2,12.9,29.83,SW,218,0.0,3.6,59,0.00,,,0.00,VWS V13.01,2013-02-04 08:02:00,
2013-02-04 03:07:00,25.2,12.9,29.83,SSW,209,0.0,2.7,59,0.00,,,0.00,VWS V13.01,2013-02-04 08:07:00,
2013-02-04 03:12:00,25.0,12.7,29.83,SSE,162,0.0,2.7,59,0.00,,,0.00,VWS V13.01,2013-02-04 08:12:00,
2013-02-04 03:17:00,24.8,12.5,29.83,SSE,154,0.0,3.6,59,0.00,,,0.00,VWS V13.01,2013-02-04 08:17:00,
2013-02-04 03:22:00,24.8,12.5,29.83,SSW,210,0.0,3.6,59,0.00,,,0.00,VWS V13.01,2013-02-04 08:22:00,
2013-02-04 03:27:00,24.6,12.7,29.83,SSW,210,0.0,0.0,60,0.00,,,0.00,VWS V13.01,2013-02-04 08:27:00,
2013-02-04 03:32:00,24.6,12.4,29.83,SSE,163,0.0,3.6,59,0.00,,,0.00,VWS V13.01,2013-02-04 08:32:00,
2013-02-04 03:37:00,24.6,12.4,29.83,SSE,163,0.0,2.2,59,0.00,,,0.00,VWS V13.01,2013-02-04 08:37:00,
2013-02-04 03:42:00,24.4,12.2,29.83,SSE,162,0.0,2.7,59,0.00,,,0.00,VWS V13.01,2013-02-04 08:42:00,
2013-02-04 03:47:00,24.4,12.2,29.83,SSE,162,0.0,3.1,59,0.00,,,0.00,VWS V13.01,2013-02-04 08:47:00,
2013-02-04 03:52:00,24.4,12.2,29.83,SSE,162,0.0,0.0,59,0.00,,,0.00,VWS V13.01,2013-02-04 08:52:00,
2013-02-04 03:57:00,24.3,12.0,29.83,SSE,162,2.7,3.1,59,0.00,,,0.00,VWS V13.01,2013-02-04 08:57:00,
2013-02-04 04:02:00,24.1,11.8,29.83,SSE,161,2.2,3.1,59,0.00,,,0.00,VWS V13.01,2013-02-04 09:02:00,
2013-02-04 04:07:00,24.1,11.5,29.83,SSE,165,0.0,0.0,58,0.00,,,0.00,VWS V13.01,2013-02-04 09:07:00,
2013-02-04 04:12:00,23.9,11.7,29.83,South,173,0.0,3.1,59,0.00,,,0.00,VWS V13.01,2013-02-04 09:12:00,
2013-02-04 04:17:00,23.9,11.3,29.83,West,272,0.0,3.6,58,0.00,,,0.00,VWS V13.01,2013-02-04 09:17:00,
2013-02-04 04:22:00,23.7,11.1,29.83,SW,227,0.0,3.6,58,0.00,,,0.00,VWS V13.01,2013-02-04 09:22:00,
2013-02-04 04:27:00,23.7,11.1,29.83,SW,214,3.6,4.0,58,0.00,,,0.00,VWS V13.01,2013-02-04 09:27:00,
2013-02-04 04:32:00,23.7,11.1,29.86,West,273,2.7,4.9,58,0.00,,,0.00,VWS V13.01,2013-02-04 09:32:00,
2013-02-04 04:37:00,23.7,11.1,29.86,SE,141,4.0,4.0,58,0.00,,,0.00,VWS V13.01,2013-02-04 09:37:00,
2013-02-04 04:42:00,23.5,10.9,29.86,South,172,0.0,0.0,58,0.00,,,0.00,VWS V13.01,2013-02-04 09:42:00,
2013-02-04 04:47:00,23.5,10.6,29.86,SW,217,0.0,3.1,57,0.00,,,0.00,VWS V13.01,2013-02-04 09:47:00,
2013-02-04 04:52:00,23.5,11.3,29.86,SW,216,0.0,3.6,59,0.00,,,0.00,VWS V13.01,2013-02-04 09:52:00,
2013-02-04 04:57:00,23.4,10.4,29.86,SW,216,0.0,3.1,57,0.00,,,0.00,VWS V13.01,2013-02-04 09:57:00,
2013-02-04 05:02:00,23.4,11.2,29.86,SW,214,0.0,0.0,59,0.00,,,0.00,VWS V13.01,2013-02-04 10:02:00,
2013-02-04 05:07:00,23.2,10.2,29.86,SSE,165,2.7,2.7,57,0.00,,,0.00,VWS V13.01,2013-02-04 10:07:00,
2013-02-04 05:12:00,23.2,9.8,29.86,SSW,206,0.0,2.2,56,0.00,,,0.00,VWS V13.01,2013-02-04 10:12:00,
2013-02-04 05:17:00,23.2,9.8,29.89,West,271,0.0,2.7,56,0.00,,,0.00,VWS V13.01,2013-02-04 10:17:00,
2013-02-04 05:22:00,23.0,9.7,29.89,SW,214,0.0,2.7,56,0.00,,,0.00,VWS V13.01,2013-02-04 10:22:00,
2013-02-04 05:27:00,23.0,9.7,29.89,SW,231,0.0,4.0,56,0.00,,,0.00,VWS V13.01,2013-02-04 10:27:00,
2013-02-04 05:32:00,23.0,9.7,29.89,SSE,166,2.2,3.6,56,0.00,,,0.00,VWS V13.01,2013-02-04 10:32:00,
2013-02-04 05:37:00,23.0,10.1,29.89,SW,220,2.7,5.4,57,0.00,,,0.00,VWS V13.01,2013-02-04 10:37:00,
2013-02-04 05:42:00,22.8,9.9,29.89,South,175,2.7,2.7,57,0.00,,,0.00,VWS V13.01,2013-02-04 10:42:00,
2013-02-04 05:47:00,22.8,9.5,29.89,West,275,0.0,2.2,56,0.00,,,0.00,VWS V13.01,2013-02-04 10:47:00,
2013-02-04 05:52:00,22.8,10.3,29.89,WSW,238,2.7,2.7,58,0.00,,,0.00,VWS V13.01,2013-02-04 10:52:00,
2013-02-04 05:57:00,22.8,10.3,29.89,WSW,238,0.0,0.0,58,0.00,,,0.00,VWS V13.01,2013-02-04 10:57:00,
2013-02-04 06:02:00,22.6,10.1,29.89,SW,225,0.0,0.0,58,0.00,,,0.00,VWS V13.01,2013-02-04 11:02:00,
2013-02-04 06:07:00,22.6,10.5,29.89,South,187,0.0,3.6,59,0.00,,,0.00,VWS V13.01,2013-02-04 11:07:00,
2013-02-04 06:12:00,22.6,10.5,29.89,West,274,0.0,2.2,59,0.00,,,0.00,VWS V13.01,2013-02-04 11:12:00,
2013-02-04 06:17:00,22.5,10.3,29.89,SE,146,0.0,5.8,59,0.00,,,0.00,VWS V13.01,2013-02-04 11:17:00,
2013-02-04 06:22:00,22.5,10.3,29.89,SE,146,0.0,0.0,59,0.00,,,0.00,VWS V13.01,2013-02-04 11:22:00,
2013-02-04 06:27:00,22.5,10.3,29.89,SSW,210,2.2,2.2,59,0.00,,,0.00,VWS V13.01,2013-02-04 11:27:00,
2013-02-04 06:32:00,22.3,10.1,29.92,SSE,167,0.0,2.7,59,0.00,,,0.00,VWS V13.01,2013-02-04 11:32:00,
2013-02-04 06:37:00,22.3,10.1,29.92,SSE,166,0.0,3.1,59,0.00,,,0.00,VWS V13.01,2013-02-04 11:37:00,
2013-02-04 06:42:00,22.3,10.1,29.92,SSE,166,0.0,0.0,59,0.00,,,0.00,VWS V13.01,2013-02-04 11:42:00,
2013-02-04 06:47:00,22.1,10.0,29.92,SSE,164,0.0,0.0,59,0.00,,,0.00,VWS V13.01,2013-02-04 11:47:00,
2013-02-04 06:52:00,22.1,10.4,29.92,SSE,164,0.0,0.0,60,0.00,,,0.00,VWS V13.01,2013-02-04 11:52:00,
2013-02-04 06:57:00,22.1,10.4,29.92,SSE,164,0.0,0.0,60,0.00,,,0.00,VWS V13.01,2013-02-04 11:57:00,
2013-02-04 07:02:00,22.1,10.0,29.92,SSE,164,0.0,2.2,59,0.00,,,0.00,VWS V13.01,2013-02-04 12:02:00,
2013-02-04 07:07:00,22.3,10.5,29.92,South,184,3.6,3.6,60,0.00,,,0.00,VWS V13.01,2013-02-04 12:07:00,
2013-02-04 07:12:00,22.3,10.5,29.92,SSE,168,2.7,3.1,60,0.00,,,0.00,VWS V13.01,2013-02-04 12:12:00,
2013-02-04 07:16:00,22.3,10.5,29.92,South,170,2.7,2.7,60,0.00,,,0.00,VWS V13.01,2013-02-04 12:16:00,
2013-02-04 07:21:00,22.5,10.7,29.92,South,171,0.0,0.0,60,0.00,,,0.00,VWS V13.01,2013-02-04 12:21:00,
2013-02-04 07:26:00,22.5,10.3,29.92,South,170,0.0,2.7,59,0.00,,,0.00,VWS V13.01,2013-02-04 12:26:00,
2013-02-04 07:31:00,22.5,10.7,29.92,South,171,0.0,2.2,60,0.00,,,0.00,VWS V13.01,2013-02-04 12:31:00,
2013-02-04 07:36:00,22.5,10.3,29.92,South,171,0.0,2.2,59,0.00,,,0.00,VWS V13.01,2013-02-04 12:36:00,
2013-02-04 07:41:00,22.6,10.5,29.92,South,171,0.0,3.1,59,0.00,,,0.00,VWS V13.01,2013-02-04 12:41:00,
2013-02-04 07:46:00,22.6,10.5,29.92,SW,223,4.9,4.9,59,0.00,,,0.00,VWS V13.01,2013-02-04 12:46:00,
2013-02-04 07:51:00,22.6,10.5,29.92,SSE,162,0.0,2.7,59,0.00,,,0.00,VWS V13.01,2013-02-04 12:51:00,
2013-02-04 07:56:00,22.8,10.6,29.92,SSE,151,0.0,3.6,59,0.00,,,0.00,VWS V13.01,2013-02-04 12:56:00,
2013-02-04 08:01:00,22.8,10.6,29.95,WSW,244,0.0,3.1,59,0.00,,,0.00,VWS V13.01,2013-02-04 13:01:00,
2013-02-04 08:06:00,23.0,10.8,29.95,SE,126,4.0,4.0,59,0.00,,,0.00,VWS V13.01,2013-02-04 13:06:00,
2013-02-04 08:11:00,23.2,11.0,29.95,SE,143,2.2,4.9,59,0.00,,,0.00,VWS V13.01,2013-02-04 13:11:00,
2013-02-04 08:16:00,23.4,11.2,29.95,SSE,155,3.6,5.8,59,0.00,,,0.00,VWS V13.01,2013-02-04 13:16:00,
2013-02-04 08:21:00,23.4,10.4,29.95,SW,221,2.2,2.7,57,0.00,,,0.00,VWS V13.01,2013-02-04 13:21:00,
2013-02-04 08:26:00,23.5,10.9,29.95,SSW,212,3.6,5.4,58,0.00,,,0.00,VWS V13.01,2013-02-04 13:26:00,
2013-02-04 08:31:00,23.5,10.6,29.95,SSE,157,0.0,3.6,57,0.00,,,0.00,VWS V13.01,2013-02-04 13:31:00,
2013-02-04 08:36:00,23.7,10.7,29.95,WSW,253,2.2,2.7,57,0.00,,,0.00,VWS V13.01,2013-02-04 13:36:00,
2013-02-04 08:41:00,23.9,10.5,29.95,SW,223,0.0,2.2,56,0.00,,,0.00,VWS V13.01,2013-02-04 13:41:00,
2013-02-04 08:46:00,24.1,11.1,29.95,WSW,244,0.0,3.1,57,0.00,,,0.00,VWS V13.01,2013-02-04 13:46:00,
2013-02-04 08:51:00,24.4,11.4,29.95,West,262,0.0,0.0,57,0.00,,,0.00,VWS V13.01,2013-02-04 13:51:00,
2013-02-04 08:56:00,24.4,11.0,29.95,SSE,161,2.2,2.7,56,0.00,,,0.00,VWS V13.01,2013-02-04 13:56:00,
2013-02-04 09:01:00,24.4,11.0,29.95,SW,225,3.6,4.9,56,0.00,,,0.00,VWS V13.01,2013-02-04 14:01:00,
2013-02-04 09:06:00,24.8,11.3,29.95,SSW,201,2.7,3.1,56,0.00,,,0.00,VWS V13.01,2013-02-04 14:06:00,
2013-02-04 09:11:00,25.0,11.5,29.95,WSW,248,0.0,3.6,56,0.00,,,0.00,VWS V13.01,2013-02-04 14:11:00,
2013-02-04 09:16:00,25.2,11.3,29.95,West,263,2.2,3.6,55,0.00,,,0.00,VWS V13.01,2013-02-04 14:16:00,
2013-02-04 09:21:00,25.3,11.0,29.95,SW,217,0.0,5.8,54,0.00,,,0.00,VWS V13.01,2013-02-04 14:21:00,
2013-02-04 09:26:00,25.5,11.2,29.95,WSW,240,0.0,0.0,54,0.00,,,0.00,VWS V13.01,2013-02-04 14:26:00,
2013-02-04 09:31:00,25.5,11.2,29.95,SW,221,4.0,4.0,54,0.00,,,0.00,VWS V13.01,2013-02-04 14:31:00,
2013-02-04 09:36:00,25.9,11.5,29.95,SSW,193,3.1,3.1,54,0.00,,,0.00,VWS V13.01,2013-02-04 14:36:00,
2013-02-04 09:41:00,26.1,11.3,29.95,WSW,243,3.1,3.6,53,0.00,,,0.00,VWS V13.01,2013-02-04 14:41:00,
2013-02-04 09:46:00,26.2,11.4,29.95,WSW,253,2.7,5.8,53,0.00,,,0.00,VWS V13.01,2013-02-04 14:46:00,
2013-02-04 09:51:00,26.4,11.6,29.95,SSE,154,2.2,5.4,53,0.00,,,0.00,VWS V13.01,2013-02-04 14:51:00,
2013-02-04 09:56:00,26.8,11.5,29.95,SSW,201,0.0,3.6,52,0.00,,,0.00,VWS V13.01,2013-02-04 14:56:00,
2013-02-04 10:01:00,27.0,11.7,29.95,SSW,212,4.9,6.3,52,0.00,,,0.00,VWS V13.01,2013-02-04 15:01:00,
2013-02-04 10:06:00,27.1,11.4,29.95,SSE,150,3.1,3.6,51,0.00,,,0.00,VWS V13.01,2013-02-04 15:06:00,
2013-02-04 10:11:00,27.1,11.4,29.95,WSW,237,2.2,4.0,51,0.00,,,0.00,VWS V13.01,2013-02-04 15:11:00,
2013-02-04 10:16:00,27.3,11.6,29.95,SW,223,0.0,2.7,51,0.00,,,0.00,VWS V13.01,2013-02-04 15:16:00,
2013-02-04 10:21:00,27.9,11.6,29.95,SSW,197,5.8,5.8,50,0.00,,,0.00,VWS V13.01,2013-02-04 15:21:00,
2013-02-04 10:26:00,27.9,12.1,29.95,WSW,254,0.0,3.1,51,0.00,,,0.00,VWS V13.01,2013-02-04 15:26:00,
2013-02-04 10:31:00,28.0,11.8,29.95,WSW,254,2.7,2.7,50,0.00,,,0.00,VWS V13.01,2013-02-04 15:31:00,
2013-02-04 10:36:00,28.0,11.8,29.95,SSW,203,2.7,4.0,50,0.00,,,0.00,VWS V13.01,2013-02-04 15:36:00,
2013-02-04 10:41:00,27.9,11.6,29.95,NNW,337,3.6,3.6,50,0.00,,,0.00,VWS V13.01,2013-02-04 15:41:00,
2013-02-04 10:46:00,28.2,12.0,29.95,SSW,208,4.9,4.9,50,0.00,,,0.00,VWS V13.01,2013-02-04 15:46:00,
2013-02-04 10:51:00,28.4,12.1,29.95,SSE,150,2.7,2.7,50,0.00,,,0.00,VWS V13.01,2013-02-04 15:51:00,
2013-02-04 10:56:00,28.6,11.9,29.95,WSW,237,4.9,4.9,49,0.00,,,0.00,VWS V13.01,2013-02-04 15:56:00,
2013-02-04 11:01:00,28.9,12.2,29.95,SW,217,3.6,3.6,49,0.00,,,0.00,VWS V13.01,2013-02-04 16:01:00,
2013-02-04 11:06:00,28.9,12.2,29.95,West,260,2.7,6.3,49,0.00,,,0.00,VWS V13.01,2013-02-04 16:06:00,
2013-02-04 11:11:00,28.8,12.0,29.95,SE,132,3.6,3.6,49,0.00,,,0.00,VWS V13.01,2013-02-04 16:11:00,
2013-02-04 11:16:00,28.8,12.0,29.95,SW,217,0.0,3.1,49,0.00,,,0.00,VWS V13.01,2013-02-04 16:16:00,
2013-02-04 11:21:00,29.3,12.5,29.95,SW,226,2.7,3.1,49,0.00,,,0.00,VWS V13.01,2013-02-04 16:21:00,
2013-02-04 11:26:00,29.1,12.4,29.95,South,186,2.7,5.4,49,0.00,,,0.00,VWS V13.01,2013-02-04 16:26:00,
2013-02-04 11:31:00,28.9,12.2,29.95,WSW,246,4.0,5.8,49,0.00,,,0.00,VWS V13.01,2013-02-04 16:31:00,
2013-02-04 11:36:00,28.9,12.2,29.95,SW,227,2.7,2.7,49,0.00,,,0.00,VWS V13.01,2013-02-04 16:36:00,
2013-02-04 11:41:00,29.1,12.4,29.95,SW,218,0.0,3.1,49,0.00,,,0.00,VWS V13.01,2013-02-04 16:41:00,
2013-02-04 11:46:00,29.1,12.4,29.95,SW,227,4.9,7.6,49,0.00,,,0.00,VWS V13.01,2013-02-04 16:46:00,
2013-02-04 11:51:00,28.9,12.2,29.95,SW,218,2.7,5.8,49,0.00,,,0.00,VWS V13.01,2013-02-04 16:51:00,
2013-02-04 11:56:00,28.8,12.0,29.95,SSW,212,5.8,5.8,49,0.00,,,0.00,VWS V13.01,2013-02-04 16:56:00,
2013-02-04 12:01:00,28.9,12.2,29.95,SW,217,2.2,3.6,49,0.00,,,0.00,VWS V13.01,2013-02-04 17:01:00,
2013-02-04 12:06:00,28.9,12.2,29.95,SW,223,0.0,3.1,49,0.00,,,0.00,VWS V13.01,2013-02-04 17:06:00,
2013-02-04 12:11:00,28.4,11.7,29.95,SW,227,0.0,5.8,49,0.00,,,0.00,VWS V13.01,2013-02-04 17:11:00,
2013-02-04 12:16:00,28.0,11.4,29.92,SW,231,3.1,3.1,49,0.00,,,0.00,VWS V13.01,2013-02-04 17:16:00,
2013-02-04 12:21:00,28.0,11.4,29.92,SW,221,4.0,4.0,49,0.00,,,0.00,VWS V13.01,2013-02-04 17:21:00,
2013-02-04 12:26:00,28.8,12.0,29.92,SE,134,0.0,3.1,49,0.00,,,0.00,VWS V13.01,2013-02-04 17:26:00,
2013-02-04 12:31:00,28.8,12.0,29.92,SE,134,3.1,3.6,49,0.00,,,0.00,VWS V13.01,2013-02-04 17:31:00,
2013-02-04 12:36:00,29.5,12.7,29.92,SSE,147,2.7,3.6,49,0.00,,,0.00,VWS V13.01,2013-02-04 17:36:00,
2013-02-04 12:41:00,29.8,13.0,29.92,East,96,4.0,4.0,49,0.00,,,0.00,VWS V13.01,2013-02-04 17:41:00,
2013-02-04 12:46:00,30.4,13.1,29.92,WSW,251,2.2,4.0,48,0.00,,,0.00,VWS V13.01,2013-02-04 17:46:00,
2013-02-04 12:51:00,29.3,12.1,29.92,West,264,6.3,7.6,48,0.00,,,0.00,VWS V13.01,2013-02-04 17:51:00,
2013-02-04 12:56:00,29.7,12.9,29.92,SW,222,0.0,3.6,49,0.00,,,0.00,VWS V13.01,2013-02-04 17:56:00,
2013-02-04 13:01:00,29.7,12.9,29.92,ESE,122,4.0,4.0,49,0.00,,,0.00,VWS V13.01,2013-02-04 18:01:00,
2013-02-04 13:06:00,30.2,12.9,29.92,NNW,345,4.9,4.9,48,0.00,,,0.00,VWS V13.01,2013-02-04 18:06:00,
2013-02-04 13:11:00,29.8,13.0,29.92,SSW,213,3.6,4.9,49,0.00,,,0.00,VWS V13.01,2013-02-04 18:11:00,
2013-02-04 13:16:00,29.5,12.7,29.92,SSE,160,5.8,5.8,49,0.00,,,0.00,VWS V13.01,2013-02-04 18:16:00,
2013-02-04 13:21:00,30.0,13.2,29.92,East,99,2.7,2.7,49,0.00,,,0.00,VWS V13.01,2013-02-04 18:21:00,
2013-02-04 13:26:00,30.9,13.6,29.92,SW,226,3.6,4.9,48,0.00,,,0.00,VWS V13.01,2013-02-04 18:26:00,
2013-02-04 13:31:00,30.4,13.1,29.92,SSW,212,2.7,3.1,48,0.00,,,0.00,VWS V13.01,2013-02-04 18:31:00,
2013-02-04 13:36:00,29.8,13.0,29.92,SW,227,5.8,5.8,49,0.00,,,0.00,VWS V13.01,2013-02-04 18:36:00,
2013-02-04 13:41:00,29.3,12.5,29.92,West,280,2.7,2.7,49,0.00,,,0.00,VWS V13.01,2013-02-04 18:41:00,
2013-02-04 13:46:00,29.5,12.7,29.92,West,280,2.2,4.0,49,0.00,,,0.00,VWS V13.01,2013-02-04 18:46:00,
2013-02-04 13:51:00,29.8,13.0,29.92,SSE,155,3.1,4.0,49,0.00,,,0.00,VWS V13.01,2013-02-04 18:51:00,
2013-02-04 13:56:00,30.0,13.2,29.92,SW,227,4.0,5.4,49,0.00,,,0.00,VWS V13.01,2013-02-04 18:56:00,
2013-02-04 14:01:00,30.2,13.4,29.92,SW,226,3.6,7.2,49,0.00,,,0.00,VWS V13.01,2013-02-04 19:01:00,
2013-02-04 14:06:00,30.6,13.2,29.92,SE,125,3.6,4.9,48,0.00,,,0.00,VWS V13.01,2013-02-04 19:06:00,
2013-02-04 14:11:00,30.6,13.2,29.92,SW,226,2.2,2.7,48,0.00,,,0.00,VWS V13.01,2013-02-04 19:11:00,
2013-02-04 14:16:00,30.4,13.1,29.89,SSE,151,3.1,5.4,48,0.00,,,0.00,VWS V13.01,2013-02-04 19:16:00,
2013-02-04 14:21:00,30.9,13.6,29.89,NNW,338,3.1,4.9,48,0.00,,,0.00,VWS V13.01,2013-02-04 19:21:00,
2013-02-04 14:26:00,30.9,13.6,29.89,SW,230,2.2,3.1,48,0.00,,,0.00,VWS V13.01,2013-02-04 19:26:00,
2013-02-04 14:31:00,30.9,13.6,29.89,NNW,336,0.0,0.0,48,0.00,,,0.00,VWS V13.01,2013-02-04 19:31:00,
2013-02-04 14:36:00,31.1,13.7,29.89,SE,140,0.0,3.6,48,0.00,,,0.00,VWS V13.01,2013-02-04 19:36:00,
2013-02-04 14:41:00,31.1,13.7,29.89,SW,232,2.7,6.3,48,0.00,,,0.00,VWS V13.01,2013-02-04 19:41:00,
2013-02-04 14:46:00,31.1,13.7,29.89,SSW,201,3.1,4.9,48,0.00,,,0.00,VWS V13.01,2013-02-04 19:46:00,
2013-02-04 14:51:00,31.1,13.7,29.89,West,261,2.7,2.7,48,0.00,,,0.00,VWS V13.01,2013-02-04 19:51:00,
2013-02-04 14:56:00,31.3,13.9,29.89,SSE,161,2.2,3.6,48,0.00,,,0.00,VWS V13.01,2013-02-04 19:56:00,
2013-02-04 15:01:00,30.7,13.4,29.89,South,177,5.4,5.4,48,0.00,,,0.00,VWS V13.01,2013-02-04 20:01:00,
2013-02-04 15:06:00,31.1,13.7,29.89,SW,236,0.0,3.1,48,0.00,,,0.00,VWS V13.01,2013-02-04 20:06:00,
2013-02-04 15:11:00,31.1,13.7,29.89,SW,223,3.6,3.6,48,0.00,,,0.00,VWS V13.01,2013-02-04 20:11:00,
2013-02-04 15:16:00,30.9,13.1,29.89,SSE,160,2.7,3.1,47,0.00,,,0.00,VWS V13.01,2013-02-04 20:16:00,
2013-02-04 15:21:00,30.6,13.2,29.89,West,273,0.0,3.1,48,0.00,,,0.00,VWS V13.01,2013-02-04 20:21:00,
2013-02-04 15:26:00,30.7,13.4,29.89,SW,219,3.1,3.1,48,0.00,,,0.00,VWS V13.01,2013-02-04 20:26:00,
2013-02-04 15:31:00,30.2,12.9,29.89,WNW,287,0.0,2.7,48,0.00,,,0.00,VWS V13.01,2013-02-04 20:31:00,
2013-02-04 15:36:00,30.4,13.1,29.89,SSW,203,3.1,4.0,48,0.00,,,0.00,VWS V13.01,2013-02-04 20:36:00,
2013-02-04 15:41:00,30.6,13.2,29.89,South,175,2.7,4.9,48,0.00,,,0.00,VWS V13.01,2013-02-04 20:41:00,
2013-02-04 15:46:00,30.9,13.6,29.92,SSE,154,2.7,2.7,48,0.00,,,0.00,VWS V13.01,2013-02-04 20:46:00,
2013-02-04 15:50:00,30.2,12.9,29.92,West,278,2.7,3.1,48,0.00,,,0.00,VWS V13.01,2013-02-04 20:50:00,
2013-02-04 15:55:00,30.4,12.6,29.92,SSE,152,3.6,3.6,47,0.00,,,0.00,VWS V13.01,2013-02-04 20:55:00,
2013-02-04 16:00:00,31.1,13.2,29.92,SSE,160,0.0,0.0,47,0.00,,,0.00,VWS V13.01,2013-02-04 21:00:00,
2013-02-04 16:05:00,32.0,14.6,29.92,SSE,154,3.1,3.1,48,0.00,,,0.00,VWS V13.01,2013-02-04 21:05:00,
2013-02-04 16:10:00,32.2,14.2,29.92,SSW,205,0.0,2.2,47,0.00,,,0.00,VWS V13.01,2013-02-04 21:10:00,
2013-02-04 16:15:00,33.1,15.1,29.92,SW,227,2.2,3.1,47,0.00,,,0.00,VWS V13.01,2013-02-04 21:15:00,
2013-02-04 16:20:00,31.8,13.9,29.92,SW,229,0.0,0.0,47,0.00,,,0.00,VWS V13.01,2013-02-04 21:20:00,
2013-02-04 16:25:00,30.7,12.9,29.92,SW,226,3.1,3.1,47,0.00,,,0.00,VWS V13.01,2013-02-04 21:25:00,
2013-02-04 16:30:00,30.9,13.6,29.92,WSW,240,0.0,0.0,48,0.00,,,0.00,VWS V13.01,2013-02-04 21:30:00,
2013-02-04 16:35:00,30.6,13.2,29.92,South,169,0.0,2.2,48,0.00,,,0.00,VWS V13.01,2013-02-04 21:35:00,
2013-02-04 16:40:00,29.7,12.4,29.92,ESE,107,0.0,0.0,48,0.00,,,0.00,VWS V13.01,2013-02-04 21:40:00,
2013-02-04 16:45:00,29.3,12.1,29.92,SW,230,3.1,3.1,48,0.00,,,0.00,VWS V13.01,2013-02-04 21:45:00,
2013-02-04 16:50:00,29.1,11.9,29.92,West,279,0.0,0.0,48,0.00,,,0.00,VWS V13.01,2013-02-04 21:50:00,
2013-02-04 16:55:00,28.9,11.7,29.92,SE,144,3.6,3.6,48,0.00,,,0.00,VWS V13.01,2013-02-04 21:55:00,
2013-02-04 17:00:00,28.8,11.6,29.92,SSE,155,3.6,3.6,48,0.00,,,0.00,VWS V13.01,2013-02-04 22:00:00,
2013-02-04 17:05:00,28.6,11.4,29.92,SW,226,0.0,0.0,48,0.00,,,0.00,VWS V13.01,2013-02-04 22:05:00,
2013-02-04 17:10:00,28.6,11.4,29.92,SW,226,0.0,0.0,48,0.00,,,0.00,VWS V13.01,2013-02-04 22:10:00,
2013-02-04 17:15:00,28.6,11.4,29.92,West,267,0.0,0.0,48,0.00,,,0.00,VWS V13.01,2013-02-04 22:15:00,
2013-02-04 17:20:00,28.4,11.7,29.92,West,267,2.2,2.7,49,0.00,,,0.00,VWS V13.01,2013-02-04 22:20:00,
2013-02-04 17:25:00,28.4,11.7,29.92,SW,229,0.0,0.0,49,0.00,,,0.00,VWS V13.01,2013-02-04 22:25:00,
2013-02-04 17:30:00,28.2,11.5,29.92,SW,229,0.0,0.0,49,0.00,,,0.00,VWS V13.01,2013-02-04 22:30:00,
2013-02-04 17:35:00,28.2,11.5,29.92,South,177,2.7,2.7,49,0.00,,,0.00,VWS V13.01,2013-02-04 22:35:00,
2013-02-04 17:40:00,28.2,11.5,29.92,South,177,0.0,0.0,49,0.00,,,0.00,VWS V13.01,2013-02-04 22:40:00,
2013-02-04 17:45:00,27.9,11.2,29.92,SW,225,2.7,2.7,49,0.00,,,0.00,VWS V13.01,2013-02-04 22:45:00,
2013-02-04 17:50:00,28.0,11.4,29.92,SW,224,0.0,0.0,49,0.00,,,0.00,VWS V13.01,2013-02-04 22:50:00,
2013-02-04 17:55:00,28.0,11.4,29.92,SW,224,0.0,0.0,49,0.00,,,0.00,VWS V13.01,2013-02-04 22:55:00,
2013-02-04 18:00:00,27.9,11.2,29.92,SW,225,3.6,4.5,49,0.00,,,0.00,VWS V13.01,2013-02-04 23:00:00,
2013-02-04 18:05:00,27.9,11.2,29.92,SSE,151,0.0,2.7,49,0.00,,,0.00,VWS V13.01,2013-02-04 23:05:00,
2013-02-04 18:10:00,27.9,11.2,29.92,SSE,151,0.0,0.0,49,0.00,,,0.00,VWS V13.01,2013-02-04 23:10:00,
2013-02-04 18:15:00,27.9,11.2,29.95,SSE,151,0.0,0.0,49,0.00,,,0.00,VWS V13.01,2013-02-04 23:15:00,
2013-02-04 18:20:00,27.9,11.2,29.95,SSE,151,0.0,0.0,49,0.00,,,0.00,VWS V13.01,2013-02-04 23:20:00,
2013-02-04 18:25:00,27.7,11.0,29.95,SSE,151,0.0,0.0,49,0.00,,,0.00,VWS V13.01,2013-02-04 23:25:00,
2013-02-04 18:30:00,27.7,11.0,29.95,SSE,151,0.0,0.0,49,0.00,,,0.00,VWS V13.01,2013-02-04 23:30:00,
2013-02-04 18:35:00,27.5,10.9,29.95,SSE,151,0.0,0.0,49,0.00,,,0.00,VWS V13.01,2013-02-04 23:35:00,
2013-02-04 18:40:00,27.5,10.9,29.95,SSE,151,0.0,0.0,49,0.00,,,0.00,VWS V13.01,2013-02-04 23:40:00,
2013-02-04 18:45:00,27.3,11.1,29.95,SSE,151,0.0,0.0,50,0.00,,,0.00,VWS V13.01,2013-02-04 23:45:00,
2013-02-04 18:50:00,27.3,11.1,29.95,SSE,151,0.0,2.7,50,0.00,,,0.00,VWS V13.01,2013-02-04 23:50:00,
2013-02-04 18:55:00,27.3,11.1,29.95,SSE,151,0.0,0.0,50,0.00,,,0.00,VWS V13.01,2013-02-04 23:55:00,
2013-02-04 19:00:00,27.3,11.1,29.95,SSE,151,0.0,0.0,50,0.00,,,0.00,VWS V13.01,2013-02-05 00:00:00,
2013-02-04 19:05:00,27.3,11.1,29.95,SSE,151,0.0,0.0,50,0.00,,,0.00,VWS V13.01,2013-02-05 00:05:00,
2013-02-04 19:10:00,27.5,11.3,29.95,SSE,151,0.0,0.0,50,0.00,,,0.00,VWS V13.01,2013-02-05 00:10:00,
2013-02-04 19:15:00,27.5,11.3,29.95,SSE,151,0.0,0.0,50,0.00,,,0.00,VWS V13.01,2013-02-05 00:15:00,
2013-02-04 19:20:00,27.7,11.5,29.95,SSE,151,0.0,2.7,50,0.00,,,0.00,VWS V13.01,2013-02-05 00:20:00,
2013-02-04 19:25:00,27.5,11.3,29.95,SSE,151,0.0,0.0,50,0.00,,,0.00,VWS V13.01,2013-02-05 00:25:00,
2013-02-04 19:30:00,27.7,11.5,29.95,SSE,151,0.0,2.7,50,0.00,,,0.00,VWS V13.01,2013-02-05 00:30:00,
2013-02-04 19:35:00,27.7,11.5,29.95,SSE,153,0.0,3.1,50,0.00,,,0.00,VWS V13.01,2013-02-05 00:35:00,
2013-02-04 19:40:00,27.5,11.3,29.95,SSE,153,0.0,0.0,50,0.00,,,0.00,VWS V13.01,2013-02-05 00:40:00,
2013-02-04 19:45:00,27.5,11.3,29.95,SSE,153,0.0,0.0,50,0.00,,,0.00,VWS V13.01,2013-02-05 00:45:00,
2013-02-04 19:50:00,27.5,11.3,29.95,SSE,153,0.0,0.0,50,0.00,,,0.00,VWS V13.01,2013-02-05 00:50:00,
2013-02-04 19:55:00,27.3,11.6,29.95,SSE,153,0.0,0.0,51,0.00,,,0.00,VWS V13.01,2013-02-05 00:55:00,
2013-02-04 20:00:00,27.3,11.1,29.95,SSE,153,0.0,0.0,50,0.00,,,0.00,VWS V13.01,2013-02-05 01:00:00,
2013-02-04 20:05:00,27.3,11.6,29.95,SSE,153,0.0,0.0,51,0.00,,,0.00,VWS V13.01,2013-02-05 01:05:00,
2013-02-04 20:10:00,27.1,11.4,29.95,SSE,153,0.0,0.0,51,0.00,,,0.00,VWS V13.01,2013-02-05 01:10:00,
2013-02-04 20:15:00,27.1,11.4,29.95,SSE,153,0.0,0.0,51,0.00,,,0.00,VWS V13.01,2013-02-05 01:15:00,
2013-02-04 20:20:00,27.0,11.3,29.95,SSE,153,0.0,0.0,51,0.00,,,0.00,VWS V13.01,2013-02-05 01:20:00,
2013-02-04 20:25:00,27.0,11.7,29.95,SSE,153,0.0,0.0,52,0.00,,,0.00,VWS V13.01,2013-02-05 01:25:00,
2013-02-04 20:30:00,27.0,11.7,29.95,SSE,153,0.0,0.0,52,0.00,,,0.00,VWS V13.01,2013-02-05 01:30:00,
2013-02-04 20:35:00,27.0,11.7,29.95,SSE,153,0.0,0.0,52,0.00,,,0.00,VWS V13.01,2013-02-05 01:35:00,
2013-02-04 20:40:00,27.0,12.1,29.95,SSE,153,0.0,0.0,53,0.00,,,0.00,VWS V13.01,2013-02-05 01:40:00,
2013-02-04 20:45:00,27.0,12.1,29.95,SSE,153,0.0,0.0,53,0.00,,,0.00,VWS V13.01,2013-02-05 01:45:00,
2013-02-04 20:50:00,27.0,12.1,29.95,SSE,153,0.0,0.0,53,0.00,,,0.00,VWS V13.01,2013-02-05 01:50:00,
2013-02-04 20:55:00,27.0,12.6,29.95,SSE,153,0.0,0.0,54,0.00,,,0.00,VWS V13.01,2013-02-05 01:55:00,
2013-02-04 21:00:00,26.8,12.8,29.95,SSE,153,0.0,0.0,55,0.00,,,0.00,VWS V13.01,2013-02-05 02:00:00,
2013-02-04 21:05:00,26.8,12.8,29.95,SSE,153,0.0,0.0,55,0.00,,,0.00,VWS V13.01,2013-02-05 02:05:00,
2013-02-04 21:10:00,26.6,14.2,29.95,SSE,153,0.0,0.0,59,0.00,,,0.00,VWS V13.01,2013-02-05 02:10:00,
2013-02-04 21:15:00,26.2,13.9,29.95,SSE,153,0.0,0.0,59,0.00,,,0.00,VWS V13.01,2013-02-05 02:15:00,
2013-02-04 21:20:00,26.4,13.7,29.95,SSE,153,0.0,0.0,58,0.00,,,0.00,VWS V13.01,2013-02-05 02:20:00,
2013-02-04 21:25:00,26.6,14.2,29.95,SSE,153,0.0,0.0,59,0.00,,,0.00,VWS V13.01,2013-02-05 02:25:00,
2013-02-04 21:30:00,26.6,13.8,29.95,SSE,153,0.0,0.0,58,0.00,,,0.00,VWS V13.01,2013-02-05 02:30:00,
2013-02-04 21:35:00,26.8,14.0,29.95,SSE,153,0.0,0.0,58,0.00,,,0.00,VWS V13.01,2013-02-05 02:35:00,
2013-02-04 21:40:00,26.8,14.0,29.95,SSE,153,0.0,0.0,58,0.00,,,0.00,VWS V13.01,2013-02-05 02:40:00,
2013-02-04 21:45:00,26.8,13.6,29.95,SSE,153,0.0,0.0,57,0.00,,,0.00,VWS V13.01,2013-02-05 02:45:00,
2013-02-04 21:50:00,27.0,13.8,29.95,SSE,153,0.0,0.0,57,0.00,,,0.00,VWS V13.01,2013-02-05 02:50:00,
2013-02-04 21:55:00,27.0,13.8,29.95,SSE,153,0.0,0.0,57,0.00,,,0.00,VWS V13.01,2013-02-05 02:55:00,
2013-02-04 22:00:00,27.0,14.2,29.95,SSE,153,0.0,0.0,58,0.00,,,0.00,VWS V13.01,2013-02-05 03:00:00,
2013-02-04 22:05:00,27.0,14.2,29.95,SSE,153,0.0,0.0,58,0.00,,,0.00,VWS V13.01,2013-02-05 03:05:00,
2013-02-04 22:10:00,27.1,14.3,29.95,SSE,153,0.0,0.0,58,0.00,,,0.00,VWS V13.01,2013-02-05 03:10:00,
2013-02-04 22:15:00,27.1,13.9,29.95,SSE,153,0.0,0.0,57,0.00,,,0.00,VWS V13.01,2013-02-05 03:15:00,
2013-02-04 22:20:00,27.1,14.3,29.95,SSE,153,0.0,0.0,58,0.00,,,0.00,VWS V13.01,2013-02-05 03:20:00,
2013-02-04 22:25:00,27.3,13.7,29.95,SSE,153,0.0,0.0,56,0.00,,,0.00,VWS V13.01,2013-02-05 03:25:00,
2013-02-04 22:30:00,27.3,13.3,29.95,SSE,153,0.0,0.0,55,0.00,,,0.00,VWS V13.01,2013-02-05 03:30:00,
2013-02-04 22:35:00,27.3,13.7,29.95,SSE,153,0.0,0.0,56,0.00,,,0.00,VWS V13.01,2013-02-05 03:35:00,
2013-02-04 22:40:00,27.5,14.7,29.95,SSE,153,0.0,0.0,58,0.00,,,0.00,VWS V13.01,2013-02-05 03:40:00,
2013-02-04 22:45:00,27.5,14.7,29.95,SSE,153,0.0,0.0,58,0.00,,,0.00,VWS V13.01,2013-02-05 03:45:00,
2013-02-04 22:50:00,27.5,13.9,29.95,SSE,153,0.0,0.0,56,0.00,,,0.00,VWS V13.01,2013-02-05 03:50:00,
2013-02-04 22:55:00,27.5,14.3,29.95,SSE,153,0.0,0.0,57,0.00,,,0.00,VWS V13.01,2013-02-05 03:55:00,
2013-02-04 23:00:00,27.5,13.9,29.95,SSE,153,0.0,0.0,56,0.00,,,0.00,VWS V13.01,2013-02-05 04:00:00,
2013-02-04 23:05:00,27.3,13.3,29.95,SSE,153,0.0,2.7,55,0.00,,,0.00,VWS V13.01,2013-02-05 04:05:00,
2013-02-04 23:10:00,27.3,13.3,29.95,SSE,153,0.0,0.0,55,0.00,,,0.00,VWS V13.01,2013-02-05 04:10:00,
2013-02-04 23:15:00,27.3,12.9,29.95,SSE,153,0.0,0.0,54,0.00,,,0.00,VWS V13.01,2013-02-05 04:15:00,
2013-02-04 23:20:00,27.1,13.1,29.95,SSE,153,0.0,0.0,55,0.00,,,0.00,VWS V13.01,2013-02-05 04:20:00,
2013-02-04 23:25:00,27.1,13.5,29.95,SSE,153,0.0,0.0,56,0.00,,,0.00,VWS V13.01,2013-02-05 04:25:00,
2013-02-04 23:30:00,27.1,13.5,29.95,SSE,153,0.0,0.0,56,0.00,,,0.00,VWS V13.01,2013-02-05 04:30:00,
2013-02-04 23:35:00,27.1,13.5,29.95,SSE,153,0.0,0.0,56,0.00,,,0.00,VWS V13.01,2013-02-05 04:35:00,
2013-02-04 23:40:00,27.3,14.1,29.95,SSE,153,0.0,0.0,57,0.00,,,0.00,VWS V13.01,2013-02-05 04:40:00,
2013-02-04 23:45:00,27.3,14.1,29.95,SSE,153,0.0,0.0,57,0.00,,,0.00,VWS V13.01,2013-02-05 04:45:00,
2013-02-04 23:50:00,27.3,14.1,29.95,SSE,153,0.0,0.0,57,0.00,,,0.00,VWS V13.01,2013-02-05 04:50:00,
2013-02-04 23:55:00,27.3,14.1,29.95,SSE,153,0.0,0.0,57,0.00,,,0.00,VWS V13.01,2013-02-05 04:55:00,